Weather History for Madrid, Spain

Change the Weather History Date:

Tuesday, September 24, 2013

  Actual Average Record
Temperature  
Mean Temperature 73 °F -  
Max Temperature 89 °F 69 °F 89 °F (2004)
Min Temperature 57 °F 48 °F 41 °F (2002)
Cooling Degree Days 8    
Growing Degree Days 23 (Base 50)    
Moisture  
Dew Point 47 °F    
Average Humidity 40    
Maximum Humidity 63    
Minimum Humidity 17    
Precipitation  
Precipitation 0.00 in 0.05 in - ()
Sea Level Pressure  
Sea Level Pressure 30.02 in    
Wind  
Wind Speed 3 mph ()    
Max Wind Speed 9 mph    
Max Gust Speed 23 mph    
Visibility 19.0 miles    
Events      
Averages and records for this station are not official NWS values.
T = Trace of Precipitation, MM = Missing Value Source: Averaged Metar Reports

Daily Weather History Graph

Daily Weather History Graph

Search for Another Location

Airport:

Trip Planner

Search our weather history database for the weather conditions in past years. The results will help you decide how hot, cold, wet, or windy it might be!

Date:

Astronomy

Sep. 24, 2013 Rise Set
Actual Time 8:03 AM CEST 8:07 PM CEST
Civil Twilight 7:36 AM CEST 8:35 PM CEST
Nautical Twilight 7:04 AM CEST 9:06 PM CEST
Astronomical Twilight 6:32 AM CEST 9:39 PM CEST
Moon 11:13 PM CEST (9/24) 1:06 PM CEST (9/24)
Length of Visible Light 12h 58m
Length of Day
12h 04m
Waning Gibbous, 75% of the Moon is Illuminated
Sep 24
Waning Gibbous
Sep 27
Last Quarter
Oct 5
New
Oct 12
First Quarter
Oct 19
Full

Hourly Weather History & Observations

Time (CEST) Temp. Dew Point Humidity Pressure Visibility Wind Dir Wind Speed Gust Speed Precip Events Conditions
12:00 AM 71.6 °F 44.6 °F 38% 30.04 in - NE 2.3 mph - N/A   Clear
12:30 AM 69.8 °F 44.6 °F 40% 30.04 in - NNW 2.3 mph - N/A   Clear
1:00 AM 69.8 °F 46.4 °F 43% 30.04 in - North 2.3 mph - N/A   Clear
1:30 AM 68.0 °F 46.4 °F 46% 30.04 in - North 3.5 mph - N/A   Clear
2:00 AM 65 °F 46 °F 40% 30.00 in 19 mi NNW 4.6 mph - -  
2:00 AM 66.2 °F 46.4 °F 49% 30.04 in - North 3.5 mph - N/A   Clear
2:30 AM 66.2 °F 46.4 °F 49% 30.04 in - North 3.5 mph - N/A   Clear
3:00 AM 64.4 °F 46.4 °F 52% 30.04 in - North 3.5 mph - N/A   Clear
3:30 AM 64.4 °F 46.4 °F 52% 30.04 in - North 3.5 mph - N/A   Clear
4:00 AM 62.6 °F 46.4 °F 55% 30.04 in - North 4.6 mph - N/A   Clear
4:30 AM 62.6 °F 46.4 °F 55% 30.04 in - Variable 1.2 mph - N/A   Clear
5:00 AM 62.6 °F 46.4 °F 55% 30.04 in - Calm Calm - N/A   Clear
5:30 AM 60.8 °F 46.4 °F 59% 30.04 in - North 3.5 mph - N/A   Clear
6:00 AM 60.8 °F 44.6 °F 55% 30.04 in - NW 5.8 mph - N/A   Clear
6:30 AM 60.8 °F 44.6 °F 55% 30.04 in - North 3.5 mph - N/A   Clear
7:00 AM 59.0 °F 46.4 °F 63% 30.06 in - North 4.6 mph - N/A   Clear
7:30 AM 59.0 °F 44.6 °F 59% 30.06 in - NNW 4.6 mph - N/A   Clear
8:00 AM 58 °F 46 °F 54% 30.05 in 19 mi North 3.5 mph - -   Clear
8:00 AM 59.0 °F 44.6 °F 59% 30.06 in - North 3.5 mph - N/A   Clear
8:30 AM 59.0 °F 44.6 °F 59% 30.06 in - North 2.3 mph - N/A   Clear
9:00 AM 60.8 °F 46.4 °F 59% 30.06 in - North 3.5 mph - N/A   Clear
9:30 AM 64.4 °F 46.4 °F 52% 30.06 in - Variable 2.3 mph - N/A   Clear
10:00 AM 68.0 °F 46.4 °F 46% 30.06 in - Calm Calm - N/A   Clear
10:30 AM 69.8 °F 48.2 °F 46% 30.09 in - South 3.5 mph - N/A   Clear
11:00 AM 71.6 °F 51.8 °F 50% 30.09 in - South 3.5 mph - N/A   Clear
11:30 AM 73.4 °F 51.8 °F 47% 30.09 in - SSE 1.2 mph - N/A   Clear
12:00 PM 75.2 °F 51.8 °F 44% 30.09 in - Variable 2.3 mph 13.8 mph N/A   Clear
12:30 PM 77.0 °F 51.8 °F 41% 30.06 in - SW 2.3 mph - N/A   Clear
1:00 PM 78.8 °F 50.0 °F 36% 30.06 in - WSW 3.5 mph - N/A   Clear
1:30 PM 80.6 °F 50.0 °F 34% 30.06 in - SE 3.5 mph - N/A   Clear
2:00 PM 84 °F 50 °F 20% 29.93 in 19 mi South 3.5 mph - -  
2:00 PM 82.4 °F 50.0 °F 32% 30.04 in - SSW 3.5 mph - N/A   Clear
2:30 PM 84.2 °F 48.2 °F 29% 30.04 in - WSW 4.6 mph - N/A   Clear
3:00 PM 86.0 °F 48.2 °F 27% 30.04 in - SW 6.9 mph 20.7 mph N/A   Clear
3:30 PM 86.0 °F 48.2 °F 27% 30.01 in - SW 3.5 mph - N/A   Clear
4:00 PM 87.8 °F 48.2 °F 25% 30.01 in - South 8.1 mph 23.0 mph N/A   Clear
4:30 PM 87.8 °F 48.2 °F 25% 29.98 in - SSW 6.9 mph 20.7 mph N/A   Clear
5:00 PM 87.8 °F 46.4 °F 24% 29.98 in - SW 9.2 mph - N/A   Clear
5:30 PM 89.6 °F 46.4 °F 22% 29.98 in - SW 9.2 mph - N/A   Clear
6:00 PM 87.8 °F 46.4 °F 24% 29.98 in - SSW 8.1 mph 19.6 mph N/A   Clear
6:30 PM 87.8 °F 48.2 °F 25% 29.98 in - WSW 8.1 mph - N/A   Clear
7:00 PM 87.8 °F 46.4 °F 24% 29.98 in - SSW 8.1 mph 21.9 mph N/A   Clear
7:30 PM 86.0 °F 44.6 °F 23% 29.95 in - SSW 8.1 mph - N/A   Clear
8:00 PM 83 °F 45 °F 17% 29.85 in 19 mi SSW 5.8 mph - -   Scattered Clouds
8:00 PM 86.0 °F 46.4 °F 25% 29.98 in - SSW 5.8 mph 19.6 mph N/A   Clear
8:30 PM 84.2 °F 46.4 °F 27% 29.98 in - Variable 4.6 mph 19.6 mph N/A   Clear
9:00 PM 84.2 °F 46.4 °F 27% 29.98 in - SSW 3.5 mph 17.3 mph N/A   Clear
9:30 PM 80.6 °F 46.4 °F 30% 29.98 in - SSW 4.6 mph - N/A   Clear
10:00 PM 82.4 °F 48.2 °F 30% 29.98 in - West 5.8 mph - N/A   Clear
10:30 PM 78.8 °F 51.8 °F 39% 29.98 in - West 4.6 mph - N/A   Clear
11:00 PM 73.4 °F 46.4 °F 38% 29.98 in - Variable 1.2 mph - N/A   Clear
11:30 PM 73.4 °F 46.4 °F 38% 29.98 in - Variable 1.2 mph - N/A   Clear